sat.trackr.live / text

‹ back to catalog

STARLINK-32249

NORAD 60444 · 2024-144V

PAYLOAD ACTIVE UNKNOWN

§ Identity

Operator
Country
US
Launch date
2024-08-12
Launch site
AFETR
Launch vehicle
Mass (kg)
RCS (m²)

Purposes: comms

External: N2YO · Heavens-Above · Gunter

§ Orbital elements

Epoch: 2026-09-21T13:56:49.212096Z

Period
93.85 min
Inclination
53.1613°
Eccentricity
0.0001385
Mean motion
15.34386720 rev/d
Perigee alt
461.8 km
Apogee alt
463.7 km
Semi-major
6,840.9 km
B*
-2.3746e-5
RAAN
22.7946°
Arg perigee
71.2353°
Mean anomaly
288.8800°
Rev number
11,940

§ Raw data

STARLINK-322491 60444U 24144V   26264.58112514 -.00001178  00000+0 -23746-4 0  99942 60444  53.1613  22.7946 0001385  71.2353 288.8800 15.34386720119405

JSON: /api/v1/satellites/60444 · /tle

For live sub-satellite position, see the globe view (requires WebGL).

§ Visibility from observer

Set your observer location to see the next 7 days of passes ≥ 10°. The values pass through the URL so the page stays shareable.

No JS? Fill the form by hand. The geolocation button needs JavaScript.